Skip Page Navigation
NASA JPL Caltech
NASA Logo - Jet Propulsion Laboratory + View the NASA Portal
+ Center for Near-Earth Object Studies
JPL Home Earth Solar System Stars & Galaxies Technology
JPL Solar System Dynamics
BODIES ORBITS EPHEMERIDES TOOLS PHYSICAL DATA DISCOVERY FAQ SITE MAP
JPL Small-Body Database Browser
Search: [ help ]  
15967 Clairearmstrong (1998 DN20)
Classification: Main-belt Asteroid          SPK-ID: 2015967
Ephemeris | Orbit Diagram | Orbital Elements | Mission Design | Physical Parameters | Discovery Circumstances ]

[ show orbit diagram ]
Orbital Elements at Epoch 2459396.5 (2021-Jul-01.0) TDB
Reference: JPL 41 (heliocentric ecliptic J2000)
 Element Value Uncertainty (1-sigma)   Units 
e .2881096248468196 2.3626e-08  
a 2.637945498651522 1.2095e-08 au
q 1.877928010668675 6.4427e-08 au
i 12.21997626251796 1.6972e-06 deg
node 123.5034337935943 9.9989e-06 deg
peri 273.0905292511535 1.4471e-05 deg
M 271.4899484334716 9.3963e-06 deg
tp 2459781.257635989252
(2022-Jul-20.75763599)
4.2693e-05 TDB
period 1564.938066407269
4.28
1.0763e-05
2.947e-08
d
yr
n .2300410525679623 1.5822e-09 deg/d
Q 3.397962986634368 1.558e-08 au
  Orbit Determination Parameters
   # obs. used (total)      2331  
   data-arc span      14224 days (38.94 yr)  
   first obs. used      1982-07-21  
   last obs. used      2021-06-30  
   planetary ephem.      DE441  
   SB-pert. ephem.      SB441-N16  
   condition code      0  
   norm. resid. RMS      .47526  
   source      ORB  
   producer      Otto Matic  
   solution date      2021-Jul-08 03:59:53  

Additional Information
 Earth MOID = .931048 au 
 Jupiter MOID = 2.19371 au 
 T_jup = 3.305 
[ show covariance matrix ]

Ephemeris | Orbit Diagram | Orbital Elements | Mission Design | Physical Parameters | Discovery Circumstances ]

Physical Parameter Table
Parameter Symbol Value Units Sigma Reference Notes
absolute magnitude H 13.0   n/a MPO473981  
diameter diameter 14.430 km 0.156 urn:nasa:pds:neowise_diameters_albedos::2.0[mainbelt] (http://adsabs.harvard.edu/abs/2014ApJ...791..121M)  
rotation period rot_per 5.897 h n/a LCDB (Rev. 2020-October); Warner et al., 2009 Published Reference List:
[Brinsfield, J.W. (2010) Minor Planet Bull. 37, 50-53.]
[Warner, B.D. (2010) Minor Planet Bull. 37, 112-118.]
[Waszczak, A.; Chang, C.-K.; Ofeck, E.O.; Laher, F.; et al. (2015) Astron. J. 150, A75.]
geometric albedo albedo 0.086   0.014 urn:nasa:pds:neowise_diameters_albedos::2.0[mainbelt] (http://adsabs.harvard.edu/abs/2014ApJ...791..121M)  

15967 Clairearmstrong           Discovered 1998 Feb. 24 by M. Armstrong at Rolvenden.
Claire Armstrong, the wife of supernova discoverer Mark Armstrong, has provided unwavering support throughout the years of Mark's patrol. A large degree of Mark's success is due to Claire's support, which extends to practical help also: she co-discovered minor planet 1997 WQ28 with him.
NOTE: some special characters may not display properly (any characters within {} are an attempt to place the proper accent above a character)
Reference: 20010109/MPCPages.arcLast Updated: 2009-05-11

Alternate Designations
 1998 DN20 = 1989 CG7 = 1999 JB84 
Ephemeris | Orbit Diagram | Orbital Elements | Mission Design | Physical Parameters | Discovery Circumstances ]
ABOUT SSD CREDITS/AWARDS PRIVACY/COPYRIGHT GLOSSARY LINKS
FirstGov 2021-Aug-02 02:06 UT
(server date/time)  
NASA Home Page
Site Manager:   Ryan S. Park
Webmaster  Alan B. Chamberlin